TimeEST,TemperatureF,Dew PointF,Humidity,Sea Level PressureIn,VisibilityMPH,Wind Direction,Wind SpeedMPH,Gust SpeedMPH,PrecipitationIn,Events,Conditions,WindDirDegrees,DateUTC
12:15 AM,35.6,35.6,100,30.26,10.0,Calm,Calm,-,N/A,,Clear,0,2013-02-19 05:15:00
12:35 AM,35.6,35.6,100,30.24,10.0,Calm,Calm,-,N/A,,Clear,0,2013-02-19 05:35:00
12:55 AM,35.6,33.8,93,30.25,10.0,Calm,Calm,-,N/A,,Clear,0,2013-02-19 05:55:00
1:35 AM,33.8,33.8,100,30.23,8.0,Calm,Calm,-,N/A,,Clear,0,2013-02-19 06:35:00
2:15 AM,35.6,33.8,93,30.21,8.0,Calm,Calm,-,N/A,,Clear,0,2013-02-19 07:15:00
2:35 AM,33.8,33.8,100,30.18,10.0,Calm,Calm,-,N/A,,Clear,0,2013-02-19 07:35:00
2:55 AM,35.6,33.8,93,30.18,10.0,Calm,Calm,-,N/A,,Clear,0,2013-02-19 07:55:00
3:15 AM,35.6,35.6,100,30.18,10.0,Calm,Calm,-,N/A,,Clear,0,2013-02-19 08:15:00
3:35 AM,37.4,35.6,93,30.18,10.0,Calm,Calm,-,N/A,,Clear,0,2013-02-19 08:35:00
3:55 AM,35.6,35.6,100,30.18,10.0,Calm,Calm,-,N/A,,Clear,0,2013-02-19 08:55:00
4:15 AM,35.6,35.6,100,30.17,9.0,Calm,Calm,-,N/A,,Clear,0,2013-02-19 09:15:00
4:35 AM,35.6,35.6,100,30.17,10.0,Calm,Calm,-,N/A,,Clear,0,2013-02-19 09:35:00
4:55 AM,35.6,33.8,93,30.17,10.0,Calm,Calm,-,N/A,,Clear,0,2013-02-19 09:55:00
5:15 AM,35.6,35.6,100,30.17,7.0,Calm,Calm,-,N/A,,Clear,0,2013-02-19 10:15:00
5:35 AM,35.6,35.6,100,30.17,10.0,Calm,Calm,-,N/A,,Clear,0,2013-02-19 10:35:00
5:55 AM,35.6,35.6,100,30.16,10.0,Calm,Calm,-,N/A,,Clear,0,2013-02-19 10:55:00
6:15 AM,35.6,35.6,100,30.17,10.0,Calm,Calm,-,N/A,,Clear,0,2013-02-19 11:15:00
6:35 AM,35.6,35.6,100,30.17,10.0,Calm,Calm,-,N/A,,Clear,0,2013-02-19 11:35:00
6:50 AM,35.6,35.6,100,30.17,10.0,Calm,Calm,-,N/A,,Clear,0,2013-02-19 11:50:00
7:50 AM,44.6,44.6,100,30.17,10.0,South,5.8,-,N/A,,Clear,170,2013-02-19 12:50:00
8:50 AM,57.2,48.2,72,30.18,10.0,South,9.2,-,N/A,,Clear,180,2013-02-19 13:50:00
9:50 AM,64.4,50.0,59,30.18,10.0,South,11.5,-,N/A,,Clear,180,2013-02-19 14:50:00
10:50 AM,68.0,53.6,60,30.16,10.0,South,11.5,28.8,N/A,,Scattered Clouds,180,2013-02-19 15:50:00
11:50 AM,73.4,50.0,44,30.14,10.0,SSW,16.1,28.8,N/A,,Clear,210,2013-02-19 16:50:00
12:50 PM,73.4,51.8,47,30.10,10.0,SSW,15.0,-,N/A,,Partly Cloudy,210,2013-02-19 17:50:00
2:50 PM,77.0,53.6,44,30.03,10.0,WSW,17.3,28.8,N/A,,Scattered Clouds,240,2013-02-19 19:50:00
3:50 PM,75.2,53.6,47,30.03,10.0,West,16.1,23.0,N/A,,Mostly Cloudy,260,2013-02-19 20:50:00
4:50 PM,71.6,55.4,57,30.02,10.0,SW,13.8,23.0,N/A,Rain,Light Rain,230,2013-02-19 21:50:00
5:50 PM,69.8,55.4,60,30.04,10.0,SW,10.4,17.3,N/A,Rain,Light Rain,220,2013-02-19 22:50:00
7:50 PM,68.0,57.2,68,30.07,10.0,West,9.2,-,N/A,,Overcast,270,2013-02-20 00:50:00
8:15 PM,64.4,60.8,88,30.09,5.0,WSW,6.9,-,N/A,Rain,Light Rain,240,2013-02-20 01:15:00
8:35 PM,64.4,62.6,94,30.10,10.0,West,4.6,-,N/A,,Overcast,260,2013-02-20 01:35:00
8:55 PM,62.6,62.6,100,30.10,9.0,WNW,6.9,-,N/A,,Overcast,290,2013-02-20 01:55:00
9:15 PM,62.6,62.6,100,30.10,8.0,West,5.8,-,N/A,Rain,Light Rain,280,2013-02-20 02:15:00
9:35 PM,62.6,62.6,100,30.10,10.0,West,6.9,-,N/A,,Overcast,280,2013-02-20 02:35:00
9:55 PM,62.6,60.8,94,30.10,10.0,WNW,8.1,-,N/A,,Overcast,300,2013-02-20 02:55:00
10:15 PM,60.8,57.2,88,30.11,10.0,NW,6.9,-,N/A,,Overcast,310,2013-02-20 03:15:00
10:35 PM,60.8,57.2,88,30.11,10.0,WNW,8.1,-,N/A,,Overcast,300,2013-02-20 03:35:00
10:55 PM,59.0,57.2,94,30.12,10.0,WNW,6.9,-,N/A,,Overcast,300,2013-02-20 03:55:00
11:15 PM,59.0,57.2,94,30.12,10.0,NW,6.9,-,N/A,,Overcast,310,2013-02-20 04:15:00
11:35 PM,59.0,57.2,94,30.12,10.0,WNW,6.9,-,N/A,,Overcast,300,2013-02-20 04:35:00
11:55 PM,59.0,55.4,88,30.12,10.0,NW,4.6,-,N/A,,Overcast,310,2013-02-20 04:55:00